Regional Weather Roundup
Issued by NWS Newport/Morehead, NC

Home | Current Version | Previous Version | Text Only | Print | Product List | Glossary On
Versions: 1 2 3 4 5 6 7 8 9 10 11 12 13 14 15 16 17 18 19 20 21 22 23 24 25 26 27 28 29 30 31 32 33 34 35 36 37 38 39 40 41 42 43 44 45 46 47 48 49 50
000
ASUS42 KMHX 031725
RWRMHX
WEATHER ROUNDUP FOR EASTERN NORTH CAROLINA
NATIONAL WEATHER SERVICE NEWPORT/MOREHEAD CITY NC
100 PM EDT WED JUN 03 2015

NOTE: "FAIR" INDICATES FEW OR NO CLOUDS BELOW 12,000 FEET
WITH NO SIGNIFICANT WEATHER AND/OR OBSTRUCTIONS TO VISIBILITY

NCZ015>017-031-032-045>047-102-103-031800-
NORTH COAST

CITY           SKY/WX    TMP DP  RH WIND       PRES   REMARKS
EDENTON          N/A     70  67  92 NE5       30.08F
ELIZABETH CITY CLOUDY    70  68  93 N8        30.08S
KITTY HAWK     CLOUDY    69  69  99 N5        30.06F
MANTEO         CLOUDY    73  70  93 NE8       30.06S

$$

NCZ045>047-081-094-103-104-031800-
CENTRAL COAST

CITY           SKY/WX    TMP DP  RH WIND       PRES   REMARKS
FRISCO         CLOUDY    76  67  73 VRB5      30.05F
SWANQUARTER      N/A     75 N/A N/A NE5G10    30.00F

$$

NCZ095-097-098-100-101-031800-
SOUTHERN COAST

CITY           SKY/WX    TMP DP  RH WIND       PRES   REMARKS
BEAUFORT       CLOUDY    75  70  84 NE7       30.03F
CEDAR ISLAND     N/A     75 N/A N/A NE8       30.09S
JACKSONVILLE   CLOUDY    72  68  87 NE7       30.03F
PINEY ISLAND   LGT RAIN N/A N/A N/A NE9       30.04F
WILMINGTON     LGT RAIN  74  69  85 E7        30.03F


$$

NCZ011>013-027>030-043-044-078>080-089-090>093-098-031800-
COASTAL PLAIN

CITY           SKY/WX    TMP DP  RH WIND       PRES   REMARKS
AHOSKIE        LGT RAIN  67  65  91 NE7       30.10S
CLINTON        DRIZZLE   71  69  92 E5        30.05F
ELIZABETHTOWN  LGT RAIN  71  69  92 CALM      30.04F
GOLDSBORO      CLOUDY    73  68  83 CALM      30.03S
GREENVILLE     CLOUDY    73  70  88 E6        30.07F
HAVELOCK       RAIN      76  70  82 NE8       30.05F
KENANSVILLE    CLOUDY    71  68  90 CALM      30.06S
KINSTON        CLOUDY    73  68  83 E6        30.05F
NEW BERN       CLOUDY    75  69  81 E9        30.05F
RICHLANDS      CLOUDY    70  64  83 CALM      30.04F
ROCKY MOUNT    CLOUDY    70  67  90 NE6       30.08S
WASHINGTON     CLOUDY    73  69  87 NE6       30.06F
WHITEVILLE     LGT RAIN  72  68  88 CALM      30.04S

$$

AMZ130-135-150-152-154-156-158-170-250-252-270-ANZ085-086-088-633-658-670-031800-
MARINE OBSERVATIONS

STATION/POSITION TIME  TEMP    WIND        PRES    WAVE   SWELL
                       AIR SEA DIR/SP/G            HT/PER HT/PER
                 (UTC) (F)     (DEG/KT/KT) (MB)    (FT/S) (FT/S)
CHESAPEAKE LIGHT 1700   67      30/ 17/ 19 1018.9
64 E VA BEACH    1650   74 74   60/  4/  6 1017.6    5/ 8   5/ 8
DUCK             1700   65 59  350/ 13/ 13 1017.0
2 E DUCK         1611      71                N/A     4/ 7
OREGON INLET     1700   73 69  350/  7/ 11 1017.6
13E OREGON INLT  1700      77                N/A     4/ 7
HATTERAS CG      1700   74 77   10/  9/ 11 1017.1
DIAMOND BUOY     1650   75 81  360/  8/ 10 1017.6    3/ 8   2/ 8
CAPE LOOKOUT     1700   74      30/  9/ 11 1016.7
BEAUFORT LAB     1700   74 78   50/  6/ 11 1016.0
30 SE NEW RVR IN NOT AVBL
27 SE WRIGHTSVLE 1700      77  110/ 14/ 16   N/A
5 SE WRIGHTSVLE  1608   74 78  110/ 12/ 16 1016.8
225 S CAPE HAT   1650   77 76  160/ 10/ 10 1017.5    3/ 8   3/ 8
41 SE CHARLESTON 1650   72 79   10/  4/  6 1017.3    2/ 8   2/ 8

$$



USA.gov is the U.S. government's official web portal to all federal, state and local government web resources and services.